Stations météo

réclame
Mon MeteoGroup
South Uist Range, Grande-Bretagne (3023): Température de l'air & dewpoint: 13.07.2018 14:00:00 - 19.07.2018 14:00:00 (BST)South Uist Range, Grande-Bretagne (3023): Température de l'air -20cm: 13.07.2018 14:00:00 - 19.07.2018 14:00:00 (BST)South Uist Range, Grande-Bretagne (3023): Vitesse du vent & gusts: 13.07.2018 14:00:00 - 19.07.2018 14:00:00 (BST)South Uist Range, Grande-Bretagne (3023): Direction du vent: 13.07.2018 14:00:00 - 19.07.2018 14:00:00 (BST)South Uist Range, Grande-Bretagne (3023): reduced air pressure: 13.07.2018 14:00:00 - 19.07.2018 14:00:00 (BST)South Uist Range, Grande-Bretagne (3023): visibility: 13.07.2018 14:00:00 - 19.07.2018 14:00:00 (BST)South Uist Range, Grande-Bretagne (3023): Quantités de précipitations: 13.07.2018 14:00:00 - 19.07.2018 14:00:00 (BST)
Date & Time tt [°C] td [°C] tt -20cm [°C] ff [km/h] ff [knt] fx [km/h] fx [knt] dd ppp [hPa] vv [km] rr [mm]
19.07.2018 14:00:00 14,6 11,3 - 31 17 - - SSW 1016,5 20 0,0
19.07.2018 13:00:00 15,8 11,7 - 37 20 - - SSW 1016,5 45 0,0
19.07.2018 12:00:00 14,7 10,9 - 31 17 - - SSW 1016,8 35 0,0
19.07.2018 11:00:00 15,3 10,7 - 35 19 - - SSW 1016,8 40 0,0
19.07.2018 10:00:00 14,8 9,6 15,9 29 16 - - SW 1017,0 29 0,0
19.07.2018 09:00:00 15,2 10,6 - 28 15 - - SSW 1017,2 50 0,0
19.07.2018 08:00:00 14,1 10,3 - 22 12 - - SSW 1017,6 23 0,0
19.07.2018 07:00:00 13,6 9,8 - 24 13 - - SW 1017,7 30 0,0
19.07.2018 06:00:00 12,6 11,1 - 11 6 - - S 1017,8 35 0,0
19.07.2018 05:00:00 12,7 10,6 - 13 7 - - S 1017,9 27 0,0
19.07.2018 04:00:00 13,4 10,0 - 18 10 - - SW 1018,1 50 0,0
19.07.2018 03:00:00 13,5 10,6 - 16 9 - - SW 1018,2 45 0,0
19.07.2018 02:00:00 13,4 10,7 - 13 7 - - SW 1018,6 45 0,0
19.07.2018 01:00:00 13,4 10,3 - 13 7 - - SW 1018,7 50 0,0
19.07.2018 00:00:00 13,5 10,7 - 13 7 - - SW 1018,8 23 0,0
18.07.2018 23:00:00 13,7 11,0 - 15 8 - - WSW 1018,7 30 0,0
18.07.2018 22:00:00 14,0 10,9 - 13 7 - - SW 1018,7 30 0,0
18.07.2018 21:00:00 14,2 10,6 - 13 7 - - SW 1018,5 23 0,0
18.07.2018 20:00:00 14,6 10,6 - 13 7 - - SW 1018,4 30 0,0
18.07.2018 19:00:00 14,9 11,4 - 9 5 - - WSW 1018,3 27 0,0
18.07.2018 18:00:00 15,8 11,2 - 16 9 - - WSW 1018,2 45 0,0
18.07.2018 17:00:00 15,4 11,7 - 15 8 - - WSW 1018,1 45 0,0
18.07.2018 16:00:00 16,1 11,3 - 16 9 - - SW 1018,0 50 0,0
18.07.2018 15:00:00 15,7 10,9 - 18 10 - - WSW 1017,9 50 0,0
18.07.2018 14:00:00 15,6 10,6 - 11 6 - - WSW 1017,5 7 0,0
18.07.2018 13:00:00 15,4 10,9 - 11 6 - - SW 1017,3 35 0,0
18.07.2018 12:00:00 14,9 9,7 - 9 5 - - W 1016,8 21 0,0
18.07.2018 11:00:00 14,8 10,2 - 9 5 - - WSW 1016,6 35 0,0
18.07.2018 10:00:00 14,5 10,1 15,5 11 6 - - W 1016,6 15 0,0
18.07.2018 09:00:00 14,1 10,2 - 8 4 - - W 1016,4 40 0,0
18.07.2018 08:00:00 13,7 10,4 - 4 2 - - WNW 1015,9 17 0,0
18.07.2018 07:00:00 13,0 10,2 - 5 3 - - WNW 1015,6 22 0,0
18.07.2018 06:00:00 12,5 10,2 - 9 5 - - W 1015,0 45 0,0
18.07.2018 05:00:00 12,2 9,7 - 9 5 - - W 1014,7 20 0,0
18.07.2018 04:00:00 11,5 10,4 - 5 3 - - W 1014,6 23 0,0
18.07.2018 03:00:00 11,0 10,3 - 9 5 - - S 1014,6 19 0,0
18.07.2018 02:00:00 11,1 10,1 - 4 2 - - W 1014,5 26 1,0
18.07.2018 01:00:00 12,0 10,5 - 5 3 - - NW 1014,5 45 0,0
18.07.2018 00:00:00 11,8 10,1 - 9 5 - - WSW 1014,4 19 0,0
17.07.2018 23:00:00 12,1 10,4 - 13 7 - - W 1014,0 30 0,0
17.07.2018 22:00:00 11,9 10,3 - 9 5 - - SW 1013,8 23 0,0
17.07.2018 21:00:00 12,0 10,7 - 9 5 - - SSW 1013,7 13 0,2
17.07.2018 20:00:00 12,5 11,5 - 8 4 - - WSW 1013,3 20 0,6
17.07.2018 19:00:00 11,9 10,5 - 21 11 - - SW 1013,1 9 0,8
17.07.2018 18:00:00 13,5 11,2 - 16 9 - - WSW 1012,9 35 0,0
17.07.2018 17:00:00 13,9 10,9 - 15 8 - - WSW 1012,8 50 0,2
17.07.2018 16:00:00 12,7 11,6 - 21 11 - - SW 1012,7 5 0,6
17.07.2018 15:00:00 14,8 10,3 - 22 12 - - WSW 1012,4 50 0,0
17.07.2018 14:00:00 14,1 11,4 - 22 12 - - SW 1012,3 25 0,0
17.07.2018 13:00:00 15,2 11,0 - 16 9 - - SW 1012,3 24 0,0
17.07.2018 12:00:00 13,8 12,2 - 13 7 - - SW 1011,9 25 0,4
17.07.2018 11:00:00 12,2 11,1 - 21 11 - - SSW 1011,9 2,3 0,0
17.07.2018 10:00:00 12,3 11,4 15,5 16 9 - - SW 1011,5 7 0,2
17.07.2018 09:00:00 12,7 11,0 - 11 6 - - W 1011,3 15 0,0
17.07.2018 08:00:00 13,2 11,2 - 15 8 - - WSW 1011,1 50 0,0
17.07.2018 07:00:00 12,9 11,2 - 21 11 - - WSW 1010,7 14 0,0
17.07.2018 06:00:00 12,7 10,9 - 16 9 - - WSW 1010,6 18 0,0
17.07.2018 05:00:00 12,2 10,6 - 18 10 - - WSW 1010,5 16 0,0
17.07.2018 04:00:00 12,6 11,0 - 16 9 - - WSW 1010,5 27 0,2
17.07.2018 03:00:00 12,8 11,0 - 21 11 - - SW 1010,5 12 0,2
17.07.2018 02:00:00 13,3 11,1 - 21 11 - - SW 1010,4 30 0,0
17.07.2018 01:00:00 13,2 11,0 - 22 12 - - SW 1010,4 20 0,0
17.07.2018 00:00:00 12,6 11,9 - 16 9 - - S 1010,5 15 0,0
16.07.2018 23:00:00 12,8 11,8 - 16 9 - - S 1010,4 29 0,0
16.07.2018 22:00:00 12,2 11,3 - 24 13 - - SSW 1010,3 5 0,0
16.07.2018 21:00:00 13,2 11,7 - 22 12 - - SSW 1010,0 22 0,0
16.07.2018 20:00:00 13,5 11,0 - 28 15 - - SSW 1009,9 21 0,0
16.07.2018 19:00:00 14,0 12,0 - 29 16 - - SSW 1009,9 18 0,0
16.07.2018 18:00:00 13,3 11,7 - 31 17 - - SW 1010,0 2,8 0,0
16.07.2018 17:00:00 15,4 11,5 - 35 19 46 25 SSW 1009,8 26 0,0
16.07.2018 16:00:00 15,8 11,6 - 35 19 - - SSW 1009,8 12 0,0
16.07.2018 15:00:00 15,5 11,9 - 35 19 48 26 SSW 1009,9 35 0,0
16.07.2018 14:00:00 15,7 11,7 - 34 18 - - SSW 1009,8 35 0,0
16.07.2018 13:00:00 14,9 12,1 - 28 15 - - SW 1009,9 21 0,0
16.07.2018 12:00:00 15,5 11,3 - 28 15 - - SSW 1009,7 22 0,0
16.07.2018 11:00:00 14,4 12,4 - 26 14 - - SSW 1009,5 19 0,0
16.07.2018 10:00:00 15,4 12,0 15,5 29 16 - - SSW 1009,3 23 0,0
16.07.2018 09:00:00 14,5 11,9 - 24 13 - - SSW 1009,2 24 0,0
16.07.2018 08:00:00 14,8 12,0 - 24 13 - - SSW 1009,2 28 0,0
16.07.2018 07:00:00 13,7 11,1 - 24 13 - - SW 1009,0 26 0,0
16.07.2018 06:00:00 12,9 11,6 - 16 9 - - SSW 1008,9 18 0,0
16.07.2018 05:00:00 12,5 11,6 - 18 10 - - S 1008,8 30 0,0
16.07.2018 04:00:00 11,9 10,9 - 18 10 - - S 1008,9 15 0,0
16.07.2018 03:00:00 13,2 12,0 - 21 11 - - S 1008,8 18 0,0
16.07.2018 02:00:00 13,0 11,5 - 18 10 - - S 1008,8 14 0,0
16.07.2018 01:00:00 13,5 12,5 - 21 11 - - S 1009,0 13 0,0
16.07.2018 00:00:00 12,7 12,1 - 16 9 - - S 1009,0 10 0,0
15.07.2018 23:00:00 13,2 12,6 - 18 10 - - S 1008,9 25 0,2
15.07.2018 22:00:00 13,6 13,1 - 21 11 - - SSW 1008,8 14 0,0
15.07.2018 21:00:00 13,8 13,5 - 13 7 - - SSW 1008,7 7 0,0
15.07.2018 20:00:00 13,4 13,1 - 22 12 - - SW 1008,5 5 0,4
15.07.2018 19:00:00 14,1 13,8 - 22 12 - - WSW 1008,6 1,4 1,0
15.07.2018 18:00:00 15,0 14,6 - 13 7 - - SSW 1008,3 3,2 0,2
15.07.2018 17:00:00 15,5 14,6 - 13 7 - - SW 1008,8 13 0,0
15.07.2018 16:00:00 15,1 14,3 - 15 8 - - SW 1009,3 15 0,0
15.07.2018 15:00:00 15,8 14,8 - 16 9 - - SW 1009,7 28 0,0
15.07.2018 14:00:00 16,7 15,6 - 31 17 48 26 SSW 1009,2 18 0,0
15.07.2018 13:00:00 16,7 16,2 - 35 19 48 26 SSW 1009,0 26 0,0
15.07.2018 12:00:00 16,4 16,1 - 35 19 46 25 SSW 1009,0 3,6 0,0
15.07.2018 11:00:00 16,1 15,4 - 37 20 48 26 SSW 1009,0 4,7 0,0
15.07.2018 10:00:00 16,4 15,6 15,5 34 18 48 26 SSW 1009,0 12 0,0
15.07.2018 09:00:00 15,7 15,4 - 34 18 48 26 S 1008,9 9 0,2
15.07.2018 08:00:00 15,8 15,5 - 26 14 46 25 S 1009,0 4,0 0,0
15.07.2018 07:00:00 15,6 15,4 - 31 17 46 25 S 1008,8 6 0,0
15.07.2018 06:00:00 15,5 15,3 - 35 19 - - S 1008,9 3,4 0,2
15.07.2018 05:00:00 15,2 15,0 - 34 18 50 27 SSW 1008,9 9 0,8
15.07.2018 04:00:00 15,4 15,2 - 35 19 50 27 SSW 1008,9 7 0,2
15.07.2018 03:00:00 15,7 15,5 - 34 18 - - S 1009,2 19 0,0
15.07.2018 02:00:00 15,5 15,3 - 31 17 48 26 S 1009,6 2,1 0,0
15.07.2018 01:00:00 15,1 15,0 - 29 16 46 25 S 1009,7 1,7 0,0
15.07.2018 00:00:00 15,0 14,8 - 31 17 46 25 SSW 1009,9 3,2 0,2
14.07.2018 23:00:00 15,3 15,0 - 39 21 54 29 SSW 1010,2 1,3 0,0
14.07.2018 22:00:00 15,7 15,4 - 37 20 50 27 SSW 1010,1 6 0,0
14.07.2018 21:00:00 15,8 15,5 - 37 20 55 30 SSW 1010,1 11 0,0
14.07.2018 20:00:00 15,8 15,5 - 41 22 55 30 SSW 1010,3 9 0,0
14.07.2018 19:00:00 15,9 15,6 - 37 20 54 29 SSW 1010,7 3,0 0,2
14.07.2018 18:00:00 16,0 15,7 - 41 22 55 30 SSW 1010,9 4,9 0,0
14.07.2018 17:00:00 15,9 15,5 - 41 22 57 31 SSW 1011,3 3,3 0,0
14.07.2018 16:00:00 16,0 15,6 - 41 22 55 30 SSW 1011,6 2,1 0,0
14.07.2018 15:00:00 16,0 15,6 - 44 24 63 34 SSW 1011,7 3,8 0,2
14.07.2018 14:00:00 16,0 15,6 - 39 21 55 30 SSW 1012,0 7 0,0
14.07.2018 13:00:00 15,9 15,5 - 39 21 59 32 S 1012,1 1,9 0,0
14.07.2018 12:00:00 15,8 15,3 - 42 23 55 30 SSW 1012,3 2,1 1,4
14.07.2018 11:00:00 15,6 15,2 - 41 22 54 29 S 1012,5 2,2 0,8
14.07.2018 10:00:00 15,2 14,7 15,5 41 22 57 31 S 1012,7 3,0 0,2
14.07.2018 09:00:00 15,0 14,3 - 41 22 55 30 S 1013,0 2,6 0,2
14.07.2018 08:00:00 15,0 13,8 - 41 22 55 30 S 1013,1 3,5 0,2
14.07.2018 07:00:00 14,8 13,3 - 37 20 54 29 S 1013,3 16 0,0
14.07.2018 06:00:00 14,9 13,3 - 35 19 50 27 S 1013,6 30 0,0
14.07.2018 05:00:00 14,6 13,4 - 34 18 50 27 S 1014,3 21 0,0
14.07.2018 04:00:00 14,5 13,5 - 31 17 - - S 1015,0 22 0,0
14.07.2018 03:00:00 14,3 13,4 - 29 16 - - S 1015,4 18 0,0
14.07.2018 02:00:00 14,1 13,1 - 29 16 - - S 1016,2 18 0,0
14.07.2018 01:00:00 14,1 13,2 - 24 13 - - S 1016,7 21 0,0
14.07.2018 00:00:00 14,0 13,0 - 26 14 - - S 1017,2 35 0,0
13.07.2018 23:00:00 14,1 13,0 - 24 13 - - S 1017,6 35 0,0
13.07.2018 22:00:00 14,3 13,3 - 24 13 - - SSW 1018,0 15 0,0
13.07.2018 21:00:00 15,1 13,8 - 28 15 - - SSW 1018,2 22 0,0
13.07.2018 20:00:00 15,4 13,9 - 28 15 - - SSW 1018,6 19 0,0
13.07.2018 19:00:00 15,4 13,9 - 26 14 - - SSW 1019,0 18 0,0
13.07.2018 18:00:00 15,9 14,0 - 29 16 - - SSW 1019,2 40 0,0
13.07.2018 17:00:00 16,1 14,1 - 29 16 - - SSW 1019,6 10 0,0
13.07.2018 16:00:00 16,6 14,5 - 31 17 - - SSW 1019,8 25 0,0
13.07.2018 15:00:00 16,7 14,3 - 29 16 - - SSW 1020,2 25 0,0
13.07.2018 14:00:00 16,0 13,8 - 28 15 - - SSW 1020,5 30 0,0

tt = Température de l'air
td = dewpoint
tt -20cm = Température de l'air -20cm
ff = Vitesse du vent
fx = gusts
dd = Direction du vent
ppp = reduced air pressure
vv = visibility
rr = Quantités de précipitations

stations d'obs. à proximité